Tracking 31030 objects as of 16-Jul-2025
HD Live streaming from Space Station
objects crossing your sky now

CZ-6A DEB

Track CZ-6A DEB now!
10-day predictions


NORAD ID: 54555
Int'l Code: 2022-151LF
Perigee: 779.9 km
Apogee: 839.3 km
Inclination: 98.8 °
Period: 100.9 minutes
Semi major axis: 7180 km
RCS: Unknown
Launch date: November 11, 2022
Source: People's Republic of China (PRC)
Launch site: Taiyaun Space Center, China (TSC)

Note: This is SATELLITE DEBRIS
Your satellite tracking list
Your tracking list is empty




NASA's NSSDC Master Catalog

Two Line Element Set (TLE):
1 54555U 22151LF  25196.80183432  .00000241  00000-0  11721-3 0  9999
2 54555  98.7517 218.8891 0041328 251.6064 108.0620 14.26793980138921
Source of the keplerian elements: AFSPC